[[{"header":{"parameterUnit":"m.s-1","parameterCategory":1,"la1":30.2991,"la2":30.254,"lo1":-89.0895,"lo2":-89.0444,"dy":0.0017,"dx":0.0017,"nx":28,"ny":28,"refTime":"2023-09-26T09:00:00:Z","depth":0,"parameterNumber":2,"parameterNumberName":"U-component_of_WINDS"},"data":[0,0,0,0,0,0,0,0,0,0,0,0,0,0,0,0,0,0,0,0,0,0,0,0,0,0,0,0,0,0,0,0,0,0,0,0,0,0,0,0,0,0,0,0,0,0,0,0,0,0,0,0,0,0,0,0,0,0,-5.9299,-5.9299,0,-5.9361,-5.9362,-5.9363,-5.9245,-5.9242,-5.9238,-5.9234,-5.9293,-5.9299,-5.9304,0,0,0,0,0,0,0,0,0,0,0,0,0,-5.9072,-5.9077,-5.9299,-5.93,-5.93,-5.9361,-5.9362,-5.9363,-5.9246,-5.9241,-5.9237,-5.9232,-5.9292,-5.9298,-5.9304,0,0,0,0,0,0,0,0,0,0,0,0,0,-5.9156,-5.9079,-5.9299,-5.9249,-5.9246,-5.9361,-5.9362,-5.9363,-5.9247,-5.9241,-5.9235,-5.923,-5.929,-5.9297,-5.9305,-5.947,0,0,-5.9329,-5.9332,0,0,0,0,0,0,0,0,-5.9152,-5.9165,-5.9256,-5.9253,-5.9249,-5.929,-5.9304,-5.9399,-5.9249,-5.9246,-5.9234,-5.9227,-5.9297,-5.9303,-5.9328,-5.9472,-5.9475,-5.933,-5.9334,-5.9338,-5.934,0,0,0,0,0,0,0,-5.9146,-5.9161,-5.9323,-5.9257,-5.9253,-5.9222,-5.9228,-5.9321,-5.9303,-5.9246,-5.9238,-5.9247,-5.9294,-5.9321,-5.9328,-5.9476,-5.9329,-5.9336,-5.9341,-5.9344,-5.9757,-5.9763,0,0,0,0,0,0,-5.9147,-5.9157,-5.9321,-5.9325,-5.9185,-5.9231,-5.9237,-5.9282,-5.9302,-5.9299,-5.9252,-5.9241,-5.931,-5.9319,-5.933,-5.9522,-5.9338,-5.9345,-5.9349,-5.975,-5.9758,-5.9765,0,0,0,0,0,0,-5.9143,-5.9163,-5.9319,-5.9239,-5.9257,-5.9241,-5.9293,-5.9287,-5.9314,-5.9306,-5.9302,-5.9283,-5.9306,-5.9319,-5.9436,-5.9523,-5.9348,-5.9355,-5.9743,-5.9753,-5.9761,-5.991,0,0,0,0,0,0,-5.9137,-5.9162,-5.9226,-5.9242,-5.9261,-5.9426,-5.9298,-5.9292,-5.9328,-5.9315,-5.9335,-5.9332,-5.9302,-5.9425,-5.9444,-5.953,-5.9362,-5.9735,-5.9747,-5.9758,-5.9897,-5.9923,-5.9946,0,0,0,0,0,-5.9129,-5.9264,-5.923,-5.925,-5.9341,-5.9431,-5.9442,-5.9406,-5.9336,-5.9398,-5.9394,-5.9332,-5.9511,-5.9438,-5.9458,-5.9549,-5.9729,-5.9744,-5.9758,-5.9886,-5.9918,-5.9945,0,0,0,0,0,0,-5.9258,-5.9266,-5.9227,-5.9372,-5.9402,-5.9411,-5.9489,-5.9441,-5.949,-5.9476,-5.9428,-5.9433,-5.9559,-5.9565,-5.9484,-5.9708,-5.9608,-5.9627,-5.9699,-5.9729,-5.9753,-5.9748,-5.9368,0,0,0,0,0,-5.9303,-5.9377,-5.9379,-5.9507,-5.9524,-5.9505,-5.9542,-5.9512,-5.954,-5.9552,-5.9555,-5.9584,-5.9646,-5.9688,-5.9745,-5.9898,-5.9899,-5.997,-5.9995,-6.0015,-6.0031,-6.011,-6.0141,-5.9811,-5.9811,-5.9811,0,0,-5.9397,-5.9411,-5.946,-5.9533,-5.9553,-5.9628,-5.9516,-5.9601,-5.9656,-5.9564,-5.9674,-5.9679,-5.9707,-5.9842,-5.9902,-5.9851,-6.0122,-6.0033,-6.0049,-6.0054,-6.0128,-6.0159,-6.0187,-5.9821,-5.9819,-5.9818,0,0,-5.9607,-5.9626,-5.9734,-5.9756,-5.9787,-5.9773,-5.98,-5.9816,-5.9816,-5.9926,-5.9858,-5.9922,-6.0032,-6.0054,-6.008,-6.0299,-6.0243,-6.0319,-6.0444,-6.0522,-6.0548,-6.0571,-6.0647,-6.0675,-6.0335,-6.0336,-6.0336,0,-5.972,-5.9833,-5.9794,-5.9884,-5.9917,-5.984,-5.9947,-5.997,-6.0018,-6.0042,-5.9985,-6.012,-6.0134,-6.0272,-6.0326,-6.035,-6.0376,-6.0315,-6.0548,-6.057,-6.0591,-6.0663,-6.0692,-6.0344,-6.0343,-6.0343,-6.0342,0,-5.9968,-6.0048,-6.013,-6.018,-6.0223,-6.0321,-6.0296,-6.0343,-6.031,-6.0302,-6.0414,-6.0428,-6.0486,-6.0517,-6.0485,-6.0651,-6.0618,-6.0556,-6.0454,-6.0632,-6.0698,-6.0726,-6.0357,-6.0354,-6.0351,-6.0349,0,0,-6.0259,-6.0288,-6.0318,-6.0339,-6.0369,-6.0428,-6.0522,-6.0581,-6.0621,-6.0657,-6.0733,-6.0828,-6.077,-6.08,-6.0769,-6.0838,-6.1008,-6.0767,-6.0766,-6.0809,-6.1189,-6.1234,-6.1267,-6.0972,-6.0977,-6.0981,-6.1186,0,-6.0466,-6.063,-6.0598,-6.0756,-6.0828,-6.0756,-6.0837,-6.0863,-6.0858,-6.0916,-6.091,-6.0977,-6.0897,-6.0914,-6.0979,-6.0974,-6.1083,-6.0959,-6.104,-6.1043,-6.1033,-6.1302,-6.135,-6.1543,-6.1212,-6.1216,-6.122,0,-6.0729,-6.0776,-6.0942,-6.0959,-6.0988,-6.1062,-6.1112,-6.117,-6.1197,-6.1188,-6.1222,-6.1178,-6.127,-6.1169,-6.1293,-6.1209,-6.124,-6.1243,-6.1249,-6.1253,-6.1141,-6.1311,-6.1604,-6.1632,-6.1261,-6.1257,-6.1254,0,-6.0922,-6.1027,-6.1139,-6.116,-6.1183,-6.1237,-6.1249,-6.127,-6.1307,-6.1351,-6.1373,-6.1427,-6.1456,-6.1497,-6.1469,-6.1398,-6.1597,-6.1494,-6.159,-6.1591,-6.1633,-6.163,-6.1932,-6.1658,-6.1657,-6.1657,-6.1656,0,-6.1154,-6.1258,-6.1226,-6.1296,-6.1409,-6.1371,-6.1484,-6.1487,-6.1508,-6.1574,-6.1515,-6.1579,-6.1538,-6.1599,-6.1577,-6.1681,-6.1695,-6.1689,-6.1682,-6.1693,-6.1694,-6.1711,-6.1696,-6.1664,-6.1663,-6.1661,-6.166,0,-6.1388,-6.1371,-6.1489,-6.1502,-6.1508,-6.1591,-6.16,-6.1664,-6.1655,-6.174,-6.1758,-6.1743,-6.1811,-6.1787,-6.1859,-6.1844,-6.1977,-6.1953,-6.1968,-6.1961,-6.2058,-6.2048,-6.238,-6.242,-6.2122,-6.2125,-6.2128,0,-6.1537,-6.1615,-6.1637,-6.1678,-6.1695,-6.1762,-6.18,-6.1765,-6.1806,-6.1843,-6.1902,-6.1965,-6.2013,-6.2124,-6.2118,-6.2173,-6.2148,-6.2261,-6.2156,-6.2165,-6.2147,-6.2142,-6.2148,-6.2281,-6.2284,-6.2287,-6.2289,0,-6.1801,-6.1789,-6.1846,-6.1901,-6.1947,-6.1988,-6.2023,-6.206,-6.2028,-6.2077,-6.2146,-6.2183,-6.2257,-6.2319,-6.2369,-6.2378,-6.2328,-6.2323,-6.2347,-6.2359,-6.2363,-6.236,-6.2023,-6.2315,-6.2312,-6.231,-6.2309,-6.2308,-6.1995,-6.2061,-6.2086,-6.2151,-6.2175,-6.2209,-6.2269,-6.2268,-6.2326,-6.2384,-6.236,-6.2439,-6.2463,-6.2524,-6.2541,-6.2601,-6.2557,-6.2594,-6.2602,-6.2611,-6.2623,-6.2356,-6.261,-6.261,-6.2609,-6.2608,-6.2608,0,-6.2254,-6.2267,-6.2328,-6.238,-6.2431,-6.2382,-6.2418,-6.2463,-6.2534,-6.2562,-6.2611,-6.2689,-6.2749,-6.2749,-6.2805,-6.2853,-6.2831,-6.2868,-6.2863,-6.2866,-6.266,-6.2632,-6.2885,-6.2885,-6.2885,-6.2885,-6.2885,-6.2885,-6.2395,-6.2503,-6.2494,-6.2613,-6.2624,-6.2703,-6.2727,-6.2758,-6.278,-6.2871,-6.2921,-6.2921,-6.2937,-6.2993,-6.3046,-6.3044,-6.3066,-6.3111,-6.3101,-6.2908,-6.288,-6.2854,-6.2827,-6.3117,-6.3118,-6.3301,-6.3303,-6.3304]},{"header":{"parameterUnit":"m.s-1","parameterCategory":1,"la1":30.2991,"la2":30.254,"lo1":-89.0895,"lo2":-89.0444,"dy":0.0017,"dx":0.0017,"nx":28,"ny":28,"refTime":"2023-09-26T09:00:00:Z","depth":0,"parameterNumber":3,"parameterNumberName":"V-component_of_WINDS"},"data":[0,0,0,0,0,0,0,0,0,0,0,0,0,0,0,0,0,0,0,0,0,0,0,0,0,0,0,0,0,0,0,0,0,0,0,0,0,0,0,0,0,0,0,0,0,0,0,0,0,0,0,0,0,0,0,0,0,0,-1.5393,-1.5395,0,-1.5543,-1.5544,-1.5546,-1.5594,-1.5593,-1.5593,-1.5592,-1.5746,-1.5751,-1.5755,0,0,0,0,0,0,0,0,0,0,0,0,0,-1.5148,-1.5152,-1.5393,-1.5395,-1.5397,-1.5542,-1.5544,-1.5547,-1.5594,-1.5593,-1.5592,-1.5592,-1.5745,-1.575,-1.5756,0,0,0,0,0,0,0,0,0,0,0,0,0,-1.5272,-1.5154,-1.5393,-1.5438,-1.5444,-1.5542,-1.5545,-1.5547,-1.5594,-1.5593,-1.5592,-1.5591,-1.5743,-1.575,-1.5757,-1.5821,0,0,-1.5778,-1.5782,0,0,0,0,0,0,0,0,-1.5265,-1.5281,-1.5429,-1.5435,-1.5441,-1.5549,-1.5515,-1.5639,-1.5595,-1.5537,-1.5592,-1.5591,-1.5681,-1.5693,-1.5724,-1.5828,-1.5835,-1.5779,-1.5783,-1.5786,-1.5788,0,0,0,0,0,0,0,-1.5256,-1.5274,-1.5452,-1.5432,-1.5439,-1.5451,-1.5467,-1.5538,-1.5613,-1.5542,-1.5546,-1.5563,-1.5684,-1.5717,-1.5728,-1.5837,-1.5779,-1.5785,-1.579,-1.5792,-1.6001,-1.6002,0,0,0,0,0,0,-1.524,-1.5267,-1.5448,-1.5457,-1.5349,-1.5456,-1.5474,-1.5515,-1.5613,-1.5626,-1.5564,-1.5564,-1.5705,-1.5719,-1.5733,-1.5814,-1.5786,-1.5793,-1.5797,-1.5999,-1.6001,-1.6002,0,0,0,0,0,0,-1.5234,-1.5255,-1.5441,-1.5363,-1.5388,-1.5461,-1.5507,-1.5519,-1.5551,-1.5629,-1.5642,-1.5583,-1.5705,-1.5723,-1.5799,-1.582,-1.5796,-1.5803,-1.5998,-1.6,-1.6002,-1.5977,0,0,0,0,0,0,-1.5227,-1.5253,-1.5279,-1.5363,-1.5392,-1.5504,-1.5508,-1.5522,-1.5563,-1.5566,-1.5651,-1.5664,-1.5706,-1.5788,-1.5806,-1.583,-1.5808,-1.5996,-1.5999,-1.6001,-1.5976,-1.5978,-1.5979,0,0,0,0,0,-1.5218,-1.5266,-1.528,-1.5301,-1.5425,-1.5505,-1.5522,-1.5568,-1.5565,-1.5591,-1.564,-1.5661,-1.5815,-1.5795,-1.5816,-1.5842,-1.5995,-1.5998,-1.6001,-1.5975,-1.5977,-1.5979,0,0,0,0,0,0,-1.5183,-1.5278,-1.5294,-1.5371,-1.543,-1.5513,-1.5548,-1.5569,-1.563,-1.563,-1.5686,-1.5705,-1.5776,-1.5817,-1.5793,-1.5909,-1.5906,-1.5913,-1.5879,-1.5882,-1.5883,-1.5872,-1.5814,0,0,0,0,0,-1.5184,-1.5242,-1.5322,-1.5382,-1.541,-1.5474,-1.551,-1.5541,-1.5604,-1.563,-1.5685,-1.5745,-1.5807,-1.5847,-1.5908,-1.5982,-1.6001,-1.601,-1.6012,-1.6012,-1.6018,-1.6058,-1.6063,-1.6012,-1.6012,-1.6011,0,0,-1.5188,-1.5247,-1.528,-1.5376,-1.5425,-1.5483,-1.5494,-1.5555,-1.5598,-1.5639,-1.5713,-1.5755,-1.5827,-1.5901,-1.5936,-1.5937,-1.6036,-1.6016,-1.6016,-1.6021,-1.6062,-1.6067,-1.6071,-1.6013,-1.6013,-1.6013,0,0,-1.5223,-1.5274,-1.5328,-1.5377,-1.545,-1.5492,-1.5505,-1.5585,-1.5614,-1.5689,-1.572,-1.5772,-1.5878,-1.5927,-1.5966,-1.6017,-1.6038,-1.6036,-1.6043,-1.6082,-1.6086,-1.609,-1.6108,-1.6113,-1.6041,-1.6041,-1.6041,0,-1.5218,-1.5306,-1.5354,-1.5413,-1.5454,-1.5492,-1.5548,-1.5593,-1.5682,-1.571,-1.5709,-1.5841,-1.5892,-1.5978,-1.599,-1.602,-1.6036,-1.6026,-1.6082,-1.6086,-1.6091,-1.6108,-1.6114,-1.604,-1.604,-1.604,-1.604,0,-1.5295,-1.5355,-1.5391,-1.5476,-1.5521,-1.5578,-1.5634,-1.5674,-1.57,-1.5742,-1.5817,-1.5879,-1.5952,-1.5975,-1.6002,-1.6064,-1.6062,-1.6071,-1.6069,-1.6094,-1.6111,-1.6118,-1.6039,-1.6039,-1.6039,-1.604,0,0,-1.5314,-1.5423,-1.5435,-1.5473,-1.5556,-1.5604,-1.5662,-1.5733,-1.5766,-1.5826,-1.5876,-1.5963,-1.5972,-1.6015,-1.6048,-1.6082,-1.6117,-1.6087,-1.609,-1.609,-1.6188,-1.618,-1.6187,-1.6132,-1.6133,-1.6134,-1.6182,0,-1.5359,-1.5464,-1.5508,-1.5592,-1.5648,-1.5684,-1.5735,-1.5791,-1.5831,-1.5884,-1.5928,-1.5988,-1.5995,-1.6022,-1.6057,-1.6105,-1.6138,-1.6103,-1.6178,-1.618,-1.6158,-1.6196,-1.6189,-1.6231,-1.6189,-1.619,-1.6191,0,-1.5426,-1.5485,-1.5575,-1.5649,-1.5674,-1.5719,-1.5787,-1.5837,-1.5901,-1.5928,-1.5975,-1.6006,-1.6068,-1.6061,-1.6147,-1.6122,-1.6155,-1.6183,-1.6186,-1.6195,-1.6187,-1.6205,-1.6246,-1.6251,-1.6202,-1.6201,-1.62,0,-1.5429,-1.5531,-1.5598,-1.5629,-1.5718,-1.5749,-1.5787,-1.585,-1.5889,-1.5949,-1.5975,-1.6041,-1.6077,-1.6128,-1.6175,-1.6166,-1.6255,-1.6254,-1.6279,-1.6277,-1.6296,-1.6294,-1.6341,-1.6318,-1.6318,-1.6318,-1.6318,0,-1.5474,-1.5527,-1.56,-1.5641,-1.5701,-1.5751,-1.5809,-1.585,-1.5906,-1.5955,-1.599,-1.6036,-1.6096,-1.6149,-1.6186,-1.625,-1.6267,-1.629,-1.6299,-1.6286,-1.6283,-1.6309,-1.6307,-1.632,-1.6319,-1.6319,-1.6319,0,-1.5488,-1.5539,-1.5613,-1.5691,-1.5711,-1.5752,-1.5819,-1.5859,-1.59,-1.5962,-1.5979,-1.6043,-1.6107,-1.6159,-1.6243,-1.6268,-1.6335,-1.6346,-1.6313,-1.6318,-1.634,-1.6337,-1.6405,-1.6416,-1.6386,-1.6386,-1.6386,0,-1.5514,-1.5555,-1.5636,-1.5671,-1.5709,-1.5765,-1.5805,-1.5856,-1.5896,-1.5971,-1.6002,-1.6068,-1.6124,-1.6224,-1.6279,-1.6343,-1.6355,-1.6374,-1.6365,-1.635,-1.6354,-1.6351,-1.6355,-1.6375,-1.6375,-1.6375,-1.6375,0,-1.5553,-1.5575,-1.5632,-1.5696,-1.5742,-1.5796,-1.585,-1.5877,-1.5937,-1.598,-1.6045,-1.6088,-1.6173,-1.6238,-1.6307,-1.6347,-1.6371,-1.6378,-1.6387,-1.6374,-1.6353,-1.6364,-1.6315,-1.6376,-1.6376,-1.6376,-1.6376,-1.6376,-1.5573,-1.5611,-1.5673,-1.5734,-1.578,-1.5829,-1.5871,-1.5916,-1.5971,-1.6043,-1.607,-1.6136,-1.6198,-1.6294,-1.6334,-1.6386,-1.6389,-1.6402,-1.6406,-1.6408,-1.6406,-1.6345,-1.6399,-1.6399,-1.6399,-1.6399,-1.64,0,-1.5613,-1.5655,-1.571,-1.5784,-1.5832,-1.5849,-1.5909,-1.5948,-1.6006,-1.6061,-1.6114,-1.6189,-1.6251,-1.631,-1.6376,-1.6406,-1.6419,-1.6422,-1.642,-1.6428,-1.64,-1.6385,-1.641,-1.641,-1.641,-1.641,-1.641,-1.641,-1.564,-1.5704,-1.5734,-1.5821,-1.5863,-1.5927,-1.596,-1.6005,-1.605,-1.613,-1.6182,-1.622,-1.6276,-1.6346,-1.6404,-1.642,-1.6442,-1.6442,-1.646,-1.6432,-1.6431,-1.6429,-1.6415,-1.6446,-1.6446,-1.6484,-1.6484,-1.6484]}]]